"Pseudo-MPEC" for xkos466

Created 2024 Sep 9 7:22:28 UT using Find_Orb

Click here for an explanation of pseudo-MPECs

 
 Astrometry: 
     xkos466*KB2024 09 07.01903 23 50 03.895-42 45 05.87   ~977q 19.0 GXNEOCPL87
     xkos466 KB2024 09 07.02516 23 50 04.162-42 44 39.80   ~977q 19.3 GXNEOCPL87
     xkos466 KB2024 09 07.03130 23 50 04.474-42 44 11.87   ~977q       XNEOCPL87
     xkos466 KB2024 09 07.89624 23 51 25.394-41 41 29.69   ~982b 19.7 GXNEOCPL87
     xkos466 KB2024 09 07.90137 23 51 25.642-41 41 07.87   ~982b 19.6 GXNEOCPL87
     xkos466 KB2024 09 07.90649 23 51 25.879-41 40 46.31   ~982b 19.9 GXNEOCPL87
     xkos466 (C2024 09 08.83508123 52 45.094-40 32 05.39   ~997M 18.7 GVNEOCPL81
     xkos466 (C2024 09 08.84006423 52 45.331-40 31 43.90   ~997M       VNEOCPL81
     xkos466 (C2024 09 08.84500023 52 45.725-40 31 22.58   ~997M 18.8 GVNEOCPL81
     xkos466 KB2024 09 08.99321 23 52 52.334-40 20 36.74   ~9947 18.6 GXNEOCPL87
     xkos466 KB2024 09 08.99834 23 52 52.454-40 20 13.99   ~9947 19.8 GXNEOCPL87
     xkos466 KB2024 09 09.00348 23 52 52.757-40 19 50.09   ~9947 19.7 GXNEOCPL87

Station data:
(L81) Skygems Namibia Remote Observatory  (S23.236420 E16.361690)  Namibia.
   Observers L. Buzzi, L. Demetz. Measurers L. Buzzi, G. Galli, A. Aletti.
   0.51-m f/6.7 astrograph + CCD.
(L87) Moonbase South Observatory, Hakos  (S23.236420 E16.361890)  Namibia.
   Observer G. Duszanowicz. 0.36-m f/7.7 reflector + CCD.

Orbital elements:  xkos466
   Perihelion 2024 Aug 30.47365 +/- 0.151 TT = 11:22:03 (JD 2460552.97365)
Epoch 2024 Sep  9.0 TT = JDT 2460562.5   Earth MOID: 0.1117   Ma: 0.0779
M   4.82150489 +/- 0.07             (J2000 ecliptic)             AutoNEOCP
n   0.50612276 +/- 0.00277          Peri.  315.94348 +/- 0.26
a   1.55942849 +/- 0.0057           Node    20.54291 +/- 0.11
e   0.2968958 +/- 0.00221           Incl.    6.00321 +/- 0.037
P   1.947/711.276d         H 22.73  G  0.15   U  8.8
q 1.09644069 +/- 0.000566    Q 2.02241630 +/- 0.0108
From 12 observations 2024 Sept. 7-9 (47.6 hr); mean residual 0".41
Residuals in arcseconds: 
240907 L87  .46+  .11+    240907 L87  .41-  .19+    240908 L81  .99+  .37+    
240907 L87  .04+  .62-    240907 L87  .62-  .05+    240908 L87  .20+  .01-    
240907 L87  .08+  .38+    240908 L81  .11+  .44-    240908 L87  .81-  .35-    
240907 L87  .29-  .06+    240908 L81  .39-  .04-    240909 L87  .27+  .37+    

Ephemerides (geocentric):
Date (UTC) HH   RA             Dec           delta  r     elong  mag " sig PA
---- --------  ------------   ------------  ------ ------ -----  --- --------
2024 09 09 07  23 53 16.433   -39 57 54.84  .11222 1.1000 144.0 19.6 .287 125
2024 09 09 08  23 53 19.707   -39 54 47.35  .11222 1.1000 144.0 19.6 .296 126
2024 09 09 09  23 53 22.973   -39 51 39.73  .11222 1.1000 144.1 19.6 .305 127
2024 09 09 10  23 53 26.231   -39 48 31.98  .11222 1.1000 144.1 19.6 .314 128
2024 09 09 11  23 53 29.481   -39 45 24.09  .11222 1.1001 144.2 19.6 .323 129
2024 09 09 12  23 53 32.723   -39 42 16.07  .11222 1.1001 144.2 19.6 .333 130
2024 09 09 13  23 53 35.958   -39 39 07.92  .11222 1.1001 144.2 19.6 .343 130
2024 09 09 14  23 53 39.184   -39 35 59.63  .11222 1.1002 144.3 19.6 .353 131
2024 09 09 15  23 53 42.403   -39 32 51.21  .11222 1.1002 144.3 19.6 .364 132
2024 09 09 16  23 53 45.613   -39 29 42.67  .11222 1.1002 144.4 19.6 .374 133
2024 09 09 17  23 53 48.816   -39 26 33.99  .11222 1.1003 144.4 19.6 .386 134
2024 09 09 18  23 53 52.011   -39 23 25.19  .11222 1.1003 144.4 19.6 .397 135
2024 09 09 19  23 53 55.199   -39 20 16.25  .11222 1.1003 144.5 19.6 .409 136
2024 09 09 20  23 53 58.378   -39 17 07.19  .11222 1.1003 144.5 19.6 .421 137
2024 09 09 21  23 54 01.550   -39 13 58.00  .11222 1.1004 144.6 19.6 .434 138
2024 09 09 22  23 54 04.714   -39 10 48.68  .11222 1.1004 144.6 19.5 .446 139
2024 09 09 23  23 54 07.870   -39 07 39.24  .11222 1.1004 144.6 19.5 .459 139
2024 09 10 00  23 54 11.019   -39 04 29.67  .11222 1.1005 144.7 19.5 .473 140
2024 09 10 01  23 54 14.160   -39 01 19.98  .11222 1.1005 144.7 19.5 .487 141
2024 09 10 02  23 54 17.293   -38 58 10.16  .11222 1.1005 144.8 19.5 .501 142
2024 09 10 03  23 54 20.419   -38 55 00.22  .11222 1.1006 144.8 19.5 .515 142
2024 09 10 04  23 54 23.537   -38 51 50.15  .11222 1.1006 144.8 19.5 .530 143
2024 09 10 05  23 54 26.647   -38 48 39.96  .11222 1.1006 144.9 19.5 .545 144
2024 09 10 06  23 54 29.750   -38 45 29.65  .11223 1.1007 144.9 19.5 .561 145
2024 09 10 07  23 54 32.845   -38 42 19.22  .11223 1.1007 145.0 19.5 .576 145
2024 09 10 08  23 54 35.933   -38 39 08.67  .11223 1.1007 145.0 19.5 .593 146
2024 09 10 09  23 54 39.013   -38 35 58.00  .11223 1.1008 145.0 19.5 .609 147
2024 09 10 10  23 54 42.086   -38 32 47.20  .11223 1.1008 145.1 19.5 .626 147
2024 09 10 11  23 54 45.151   -38 29 36.29  .11224 1.1008 145.1 19.5 .643 148
2024 09 10 12  23 54 48.209   -38 26 25.26  .11224 1.1009 145.2 19.5 .661 148
2024 09 10 13  23 54 51.259   -38 23 14.12  .11224 1.1009 145.2 19.5 .679 149
2024 09 10 14  23 54 54.302   -38 20 02.85  .11225 1.1009 145.3 19.5 .697 150
2024 09 10 15  23 54 57.338   -38 16 51.47  .11225 1.1010 145.3 19.5 .715 150
2024 09 10 16  23 55 00.366   -38 13 39.98  .11225 1.1010 145.3 19.5 .734 151
2024 09 10 17  23 55 03.387   -38 10 28.37  .11226 1.1010 145.4 19.5 .754 151
2024 09 10 18  23 55 06.400   -38 07 16.64  .11226 1.1011 145.4 19.5 .773 152
2024 09 10 19  23 55 09.406   -38 04 04.80  .11226 1.1011 145.5 19.5 .793 152
2024 09 10 20  23 55 12.405   -38 00 52.85  .11227 1.1011 145.5 19.5 .814 153
2024 09 10 21  23 55 15.396   -37 57 40.79  .11227 1.1012 145.5 19.5 .834 153
2024 09 10 22  23 55 18.380   -37 54 28.61  .11228 1.1012 145.6 19.5 .855 154
2024 09 10 23  23 55 21.357   -37 51 16.32  .11228 1.1012 145.6 19.5 .877 154
2024 09 11 00  23 55 24.327   -37 48 03.92  .11228 1.1013 145.7 19.5 .898 155
2024 09 11 01  23 55 27.289   -37 44 51.42  .11229 1.1013 145.7 19.5 .921 155
2024 09 11 02  23 55 30.244   -37 41 38.80  .11229 1.1013 145.7 19.5 .943 156
2024 09 11 03  23 55 33.192   -37 38 26.07  .11230 1.1014 145.8 19.5 .966 156
2024 09 11 04  23 55 36.133   -37 35 13.24  .11230 1.1014 145.8 19.5 .989 156
2024 09 11 05  23 55 39.067   -37 32 00.30  .11231 1.1014 145.9 19.5 1.01 157
2024 09 11 06  23 55 41.993   -37 28 47.25  .11232 1.1015 145.9 19.5 1.04 157